Mount Shasta, CA

4:20 PM PDT on July 25, 2017 (GMT -0700)
Mount Shasta

Weather History for KMHS - October, 2014

Change the Weather History Date:

Thursday, October 9, 2014

  Actual Average Record
Temperature  
Mean Temperature 59 °F 54 °F  
Max Temperature 75 °F 70 °F 88 °F (1921)
Min Temperature 43 °F 38 °F 16 °F (1985)
Degree Days  
Heating Degree Days 6 11  
Month to date heating degree days 39 89  
Since 1 July heating degree days 119 326  
Cooling Degree Days 0 0  
Month to date cooling degree days 0 0  
Year to date cooling degree days 547 287  
Growing Degree Days 8 (Base 50)    
Moisture  
Dew Point 38 °F    
Average Humidity 51    
Maximum Humidity 76    
Minimum Humidity 27    
Precipitation  
Precipitation 0.00 in 0.05 in 2.00 in (1926)
Month to date precipitation 0.00 0.32  
Year to date precipitation 14.84 28.32  
Sea Level Pressure  
Sea Level Pressure 30.05 in    
Wind  
Wind Speed 2 mph (NE)    
Max Wind Speed 9 mph    
Max Gust Speed 15 mph    
Visibility 10 miles    
Events      
T = Trace of Precipitation, MM = Missing Value Source: NWS Daily Summary

Daily Weather History Graph

Daily Weather History Graph

Search for Another Location

Airport or City:

Trip Planner

Search our weather history database for the weather conditions in past years. The results will help you decide how hot, cold, wet, or windy it might be!

Date:

Astronomy

Oct. 09, 2014 Rise Set
Actual Time 7:14 AM PDT 6:37 PM PDT
Civil Twilight 6:46 AM PDT 7:05 PM PDT
Nautical Twilight 6:14 AM PDT 7:37 PM PDT
Astronomical Twilight 5:42 AM PDT 8:09 PM PDT
Moon 7:36 PM PDT (10/9) 8:36 AM PDT (10/9)
Length of Visible Light 12h 18m
Length of Day
11h 23m
Full, 98% of the Moon is Illuminated
Oct 9
Full
Oct 15
Last Quarter
Oct 23
New
Oct 30
First Quarter
Nov 6
Full

Hourly Weather History & Observations

Time (PDT) Temp. Windchill Dew Point Humidity Pressure Visibility Wind Dir Wind Speed Gust Speed Precip Events Conditions
12:56 AM 52.0 °F - 37.0 °F 57% 30.02 in 10.0 mi East 3.5 mph - N/A   Clear
1:56 AM 48.9 °F - 37.0 °F 64% 30.02 in 10.0 mi Calm Calm - N/A   Clear
2:56 AM 48.9 °F - 37.9 °F 66% 30.01 in 10.0 mi Calm Calm - N/A   Clear
3:56 AM 48.0 °F - 37.9 °F 68% 30.01 in 10.0 mi Calm Calm - N/A   Clear
4:56 AM 46.0 °F - 36.0 °F 68% 30.03 in 10.0 mi Calm Calm - N/A   Clear
5:56 AM 45.0 °F - 36.0 °F 71% 30.04 in 10.0 mi Calm Calm - N/A   Clear
6:56 AM 43.0 °F 41.3 °F 36.0 °F 76% 30.07 in 10.0 mi ENE 3.5 mph - N/A   Clear
7:56 AM 45.0 °F 43.5 °F 36.0 °F 71% 30.07 in 10.0 mi ENE 3.5 mph - N/A   Clear
8:56 AM 53.1 °F - 39.9 °F 61% 30.08 in 10.0 mi Calm Calm - N/A   Clear
9:56 AM 63.0 °F - 42.1 °F 46% 30.05 in 10.0 mi Variable 4.6 mph - N/A   Clear
10:56 AM 66.9 °F - 41.0 °F 39% 30.06 in 10.0 mi Variable 5.8 mph - N/A   Clear
11:56 AM 70.0 °F - 42.1 °F 36% 30.05 in 10.0 mi Calm Calm - N/A   Clear
12:56 PM 71.1 °F - 41.0 °F 34% 30.05 in 10.0 mi Calm Calm - N/A   Clear
1:56 PM 73.9 °F - 39.0 °F 28% 30.02 in 10.0 mi Variable 4.6 mph - N/A   Clear
2:56 PM 73.9 °F - 37.0 °F 26% 30.01 in 10.0 mi West 5.8 mph - N/A   Clear
3:56 PM 73.9 °F - 39.9 °F 29% 30.01 in 10.0 mi Variable 5.8 mph - N/A   Clear
4:56 PM 72.0 °F - 37.9 °F 29% 30.02 in 10.0 mi Variable 6.9 mph - N/A   Clear
5:56 PM 66.9 °F - 43.0 °F 42% 30.04 in 10.0 mi WNW 4.6 mph - N/A   Clear
6:56 PM 62.1 °F - 41.0 °F 46% 30.06 in 10.0 mi Calm Calm - N/A   Clear
7:56 PM 57.0 °F - 39.9 °F 53% 30.08 in 10.0 mi Calm Calm - N/A   Clear
8:56 PM 52.0 °F - 37.0 °F 57% 30.08 in 10.0 mi Calm Calm - N/A   Clear
9:56 PM 50.0 °F - 35.1 °F 57% 30.08 in 10.0 mi Variable 3.5 mph - N/A   Clear
10:56 PM 54.0 °F - 37.0 °F 53% 30.08 in 10.0 mi Calm Calm - N/A   Clear
11:56 PM 50.0 °F - 36.0 °F 59% 30.10 in 10.0 mi ENE 3.5 mph - N/A   Clear